{"data":{"norad_id":65956,"intl_designator":"2025-228K","name":"KUIPER-00127","alt_names":[],"object_type":"PAYLOAD","status":"ACTIVE","operator":null,"country":"US","launch_date":"2025-10-14","launch_site_code":"AFETR","launch_vehicle":null,"mission":null,"orbit_class":"UNKNOWN","rcs_meters":null,"size_class":null,"mass_kg":null,"dimensions":null,"purposes":[],"wikipedia_slug":null,"has_3d_model":false,"image_url":null,"decayed_at":null,"tle_current":{"epoch":"2026-09-20T06:34:14.660256Z","epoch_age_seconds":163237,"freshness":"FRESH","line1":"1 65956U 25228K   26263.27378079 -.00000869  00000+0 -85075-4 0  9995","line2":"2 65956  51.9015 212.6129 0000539  64.7127 295.3891 14.79926478 52158","mean_motion":14.79926478,"eccentricity":5.39e-5,"inclination_deg":51.9015,"raan_deg":212.6129,"arg_perigee_deg":64.7127,"mean_anomaly_deg":295.3891,"bstar":-8.5075e-5,"rev_number":5215,"period_min":97.302130977888,"perigee_km":629.17850292402,"apogee_km":629.93393225288,"semimajor_km":7007.6932175884,"source":"CELESTRAK","updated_at":"2026-09-21T09:00:15.679955Z"}}}